Regional Weather Roundup
Issued by NWS

Home | Current Version | Previous Version | Graphics & Text | Print | Product List | Glossary On
Versions: 1 2 3 4 5 6 7 8 9 10 11 12 13 14 15 16 17 18 19 20 21 22 23 24 25 26 27 28 29 30 31 32 33 34 35 36 37 38 39 40 41 42 43 44 45 46 47 48 49 50
000
ASUS43 KLMK 230502
RWRKY
KENTUCKY REGIONAL WEATHER ROUNDUP
NATIONAL WEATHER SERVICE LOUISVILLE KY
100 AM EDT MON APR 23 2018

NOTE "FAIR" INDICATES FEW OR NO CLOUDS BELOW 12,000 FEET
WITH NO SIGNIFICANT WEATHER AND/OR OBSTRUCTIONS TO VISIBILITY.

KYZ001>023-026-027-061>063-070>075-230600-
WESTERN AND SOUTH CENTRAL KENTUCKY

CITY           SKY/WX    TMP DP  RH WIND       PRES   REMARKS
PADUCAH        RAIN      58  55  90 NE15G23   29.88F FOG
HENDERSON      LGT RAIN  57  50  77 NE13      30.00F
OWENSBORO      LGT RAIN  58  48  69 E12       30.00F
HOPKINSVILLE   HVY RAIN  57  57 100 E23G35    29.86F FOG
BOWLING GREEN  RAIN      58  57  97 E12       29.98F FOG
GLASGOW        NOT AVBL
$$

KYZ024-025-028>034-038-045-046-053-230600-
NORTH CENTRAL KENTUCKY

CITY           SKY/WX    TMP DP  RH WIND       PRES   REMARKS
LOUISVILLE/SDF CLOUDY    63  29  27 E15       30.05F
LOUISVILLE/LOU FAIR      62  31  31 E13       30.06F
FORT KNOX      FAIR      61  29  30 E10       30.04F
$$

KYZ035>037-039>044-047>052-055>060-089>105-230600-
NORTHEAST KENTUCKY

CITY           SKY/WX    TMP DP  RH WIND       PRES   REMARKS
LEXINGTON      FAIR      60  28  29 E16       30.08F
COVINGTON      MOCLDY    56  31  38 E13       30.12F
FRANKFORT      FAIR      59  28  30 E9        30.07F
$$

KYZ054-064>069-076>088-106>120-230600-
SOUTHEAST KENTUCKY

CITY           SKY/WX    TMP DP  RH WIND       PRES   REMARKS
JACKSON        FAIR      61  44  53 MISG      30.12S
LONDON         LGT RAIN  62  45  53 SE10      30.09R
SOMERSET       NOT AVBL
MIDDLESBORO    LGT RAIN  58  49  73 CALM      30.11F
MONTICELLO     RAIN      56  53  90 VRB5      30.08S
$$





USA.gov is the U.S. government's official web portal to all federal, state and local government web resources and services.